Temp
2 2 2 2 2 2 2 2 2 2 1 1 1 1 0 1 1 2 4 4 4 6 9 9 10 11 13 14 17 16 17 17 19 19 20 21 21 22 21 21 21 20 20 21 21 20 20 20 20 20 20 19 19 19
1 1 1 1 2 2 2 2 2 2 2 2 2 1 1 0 0 1 3 4 4 4 7 7 7 8 9 10 11 14 15 15 17 19 20 21 21 20 20 20 21 19 21 21 21 21 19 19 19 18 18 18 18 18
1 1 2 1 1 1 2 2 2 2 2 2 2 2 1 1 0 0 1 2 4 4 6 8 9 9 9 9 9 10 13 14 14 13 17 19 18 20 20 20 20 20 19 19 20 21 20 19 19 19 18 18 18 18
1 1 1 1 1 1 2 2 2 2 2 2 2 2 2 1 1 0 1 2 3 5 8 11 10 9 9 10 10 10 10 12 12 13 15 18 19 18 20 20 19 21 18 19 19 20 19 19 19 18 17 17 17 17
1 2 1 1 1 1 1 2 2 2 2 2 2 2 1 1 1 1 1 1 2 4 6 7 8 9 9 9 9 10 10 11 12 14 16 17 18 19 18 19 19 20 19 19 19 20 19 19 18 17 17 17 17 17
1 1 1 2 2 2 2 2 2 2 2 3 2 1 2 1 1 1 3 4 3 4 4 9 10 10 10 11 10 10 11 11 12 13 15 16 16 16 18 18 19 18 18 18 19 18 17 16 16 16 16 16 17 17
1 1 1 2 2 2 2 2 2 2 2 2 2 2 1 1 1 1 5 4 3 3 4 8 12 12 10 11 11 11 11 11 12 13 14 15 16 15 17 17 18 18 17 17 17 16 16 16 16 17 16 16 16 16
1 1 2 2 2 2 2 2 2 2 2 2 2 1 1 1 1 1 4 3 3 3 4 7 11 12 10 12 12 11 12 12 12 13 15 16 16 16 16 18 17 17 16 16 16 15 15 16 15 16 15 16 15 16
1 1 1 1 2 2 2 2 2 2 2 1 1 1 1 1 1 4 3 3 4 3 5 8 11 12 9 11 14 12 13 13 14 14 16 17 18 16 17 17 17 16 16 15 15 16 16 15 15 15 15 15 16 16
1 1 1 1 2 2 2 2 2 1 1 1 1 1 2 3 4 4 4 4 3 3 3 5 9 11 9 10 13 14 12 12 13 16 16 16 18 18 17 17 15 14 14 14 15 16 16 15 15 15 15 15 15 16
1 1 1 1 2 1 1 1 1 1 1 1 2 2 4 4 3 4 5 5 5 5 4 8 10 11 8 9 11 13 13 12 15 16 17 17 18 18 14 14 13 13 13 13 13 13 13 14 14 14 14 14 14 14
1 1 1 1 2 1 1 1 1 1 1 2 2 3 3 4 5 7 8 5 4 8 10 10 10 9 7 9 9 12 13 16 14 16 16 16 14 13 14 13 13 13 13 13 13 13 13 13 13 13 14 14 14 14
1 1 1 2 2 1 1 1 1 1 1 1 2 3 4 6 6 7 9 9 10 9 10 9 9 9 9 8 9 12 14 14 16 14 15 14 13 13 12 12 12 12 12 12 12 12 12 12 12 13 13 13 13 13
1 1 1 1 1 1 1 1 1 1 1 1 2 2 5 7 9 10 11 11 10 9 8 8 9 10 11 12 11 13 14 14 14 15 14 13 12 12 12 11 12 11 11 11 11 11 11 11 11 11 12 12 12 12
1 1 1 1 2 1 1 1 1 1 2 2 2 4 8 9 8 8 9 9 10 8 8 8 10 12 12 10 11 11 13 14 15 14 13 12 11 11 11 11 10 10 11 11 10 11 12 11 10 11 12 11 11 12
1 1 1 2 1 2 2 1 1 2 2 3 2 3 7 8 8 6 7 8 8 8 8 10 12 13 13 15 14 14 15 14 13 14 11 10 10 10 10 10 10 10 10 11 11 11 10 10 10 10 10 10 10 10
1 1 2 2 2 2 2 1 2 2 3 3 4 5 5 5 6 6 6 6 7 7 11 12 13 14 15 15 14 15 13 12 12 10 10 9 9 9 9 10 10 10 10 10 10 10 10 9 9 9 10 10 10 10
1 2 2 2 2 1 1 2 2 3 4 4 6 5 5 5 5 5 6 7 7 9 10 12 13 14 14 14 13 13 11 10 10 10 9 9 9 9 10 10 10 10 10 9 10 10 10 9 9 9 9 8 7 8
2 2 2 2 2 2 3 3 3 5 6 5 4 5 5 5 6 6 6 7 7 8 9 12 13 13 12 10 11 11 10 10 12 10 9 9 10 10 10 10 10 10 9 9 10 10 9 9 9 9 8 8 8 8
2 2 2 2 3 3 4 4 4 4 5 5 5 5 5 6 6 7 8 9 8 9 11 11 11 9 9 9 9 11 10 10 10 10 9 9 10 10 10 10 10 10 11 10 10 10 9 9 9 9 8 8 8 8
2 2 2 2 3 3 4 5 5 6 5 5 5 6 7 7 8 8 9 9 10 8 8 7 7 8 9 9 9 10 10 10 10 10 10 9 9 10 10 10 10 11 12 12 12 11 12 11 9 10 10 9 9 8
2 2 2 2 3 3 4 5 5 5 5 5 6 6 7 8 9 8 8 8 7 7 7 7 8 9 9 9 10 10 10 9 9 9 9 9 10 10 10 10 10 11 11 11 11 11 11 11 9 10 9 8 8 7
3 3 3 3 3 4 4 5 5 5 6 6 6 7 7 7 7 8 9 7 7 7 7 8 9 8 9 9 10 10 10 11 10 10 10 10 10 9 9 10 10 11 11 10 10 10 9 9 8 9 8 8 7 6
3 3 3 3 3 4 4 4 4 5 5 6 7 7 7 7 9 10 9 7 7 7 8 8 9 9 9 10 10 10 9 9 9 10 10 11 11 10 10 10 10 9 9 9 9 9 8 8 8 8 7 7 7 7
2 3 2 3 4 5 8 10 10 10 10 10 11 11 11 11 11 9 8 8 7 7 9 9 9 9 10 10 10 10 10 11 12 11 11 11 11 11 10 10 9 9 9 9 9 8 8 8 8 8 7 7 7 7
3 4 4 10 10 11 12 11 11 11 12 11 11 10 11 9 8 7 7 7 7 8 8 9 10 10 10 10 10 10 10 10 11 11 10 11 11 11 11 11 10 9 9 9 8 8 8 8 7 7 7 6 6 6
8 10 10 9 10 11 11 11 11 12 12 11 12 12 12 10 7 7 7 7 7 8 9 9 9 10 10 9 9 9 9 9 10 10 9 9 9 9 10 10 9 8 8 8 8 8 7 7 7 7 6 6 5 5
9 9 10 10 11 11 11 11 10 10 11 10 11 10 9 7 8 8 8 8 8 9 9 9 9 10 10 10 10 10 9 9 9 9 9 9 8 8 8 8 7 7 7 7 7 7 7 6 6 6 6 6 5 5
7 8 8 9 8 7 7 7 8 8 8 10 9 8 7 8 7 8 9 8 8 9 9 10 10 9 9 9 9 9 9 9 10 10 10 10 10 8 7 7 7 7 7 6 6 6 5 5 5 5 5 5 5 5
8 9 9 9 9 9 8 8 9 9 10 10 9 9 10 9 9 9 10 9 10 10 10 10 10 10 10 10 9 8 7 7 8 9 9 8 7 7 7 7 7 7 7 7 6 5 5 5 5 5 5 5 5 5
9 11 11 11 10 10 10 11 11 11 11 11 12 11 11 10 10 10 10 10 10 10 10 10 10 9 9 9 9 9 7 6 5 5 6 6 6 6 6 6 6 6 6 6 6 6 5 5 5 5 5 4 4 4
10 11 11 12 11 10 11 12 11 11 11 12 12 12 12 12 11 10 9 10 10 10 9 10 10 8 8 7 7 6 6 6 6 5 5 5 5 5 6 6 6 5 5 5 5 5 5 5 5 4 4 4 3 3
11 12 12 12 12 12 12 12 12 12 12 12 12 12 12 12 12 10 9 9 9 10 10 9 8 8 7 7 6 6 6 5 5 5 5 5 4 4 5 5 5 5 5 5 5 5 5 4 4 4 3 3 3 3
Height
1505 1505 1506 1506 1507 1508 1508 1509 1509 1509 1509 1508 1508 1508 1508 1506 1506 1506 1509 1512 1513 1511 1505 1505 1505 1505 1502 1500 1493 1494 1496 1492 1488 1487 1481 1475 1473 1470 1477 1474 1476 1482 1482 1478 1479 1481 1483 1474 1477 1480 1477 1476 1477 1477
1499 1499 1500 1501 1502 1502 1503 1504 1505 1505 1506 1505 1505 1506 1506 1506 1505 1505 1508 1511 1509 1509 1503 1501 1500 1500 1503 1503 1504 1497 1494 1494 1487 1481 1475 1472 1470 1473 1475 1476 1473 1483 1474 1473 1474 1469 1475 1477 1479 1479 1478 1477 1476 1475
1492 1493 1494 1495 1496 1497 1498 1499 1500 1501 1501 1503 1503 1502 1504 1504 1504 1504 1504 1506 1507 1505 1500 1494 1492 1493 1495 1497 1501 1502 1495 1494 1494 1493 1485 1476 1476 1471 1471 1473 1469 1473 1477 1476 1475 1472 1472 1476 1477 1477 1476 1475 1474 1473
1487 1487 1488 1489 1490 1491 1492 1493 1495 1497 1498 1499 1499 1500 1502 1502 1502 1501 1501 1505 1506 1505 1497 1487 1487 1488 1489 1491 1493 1495 1495 1494 1495 1493 1488 1480 1474 1475 1469 1467 1469 1465 1472 1471 1470 1471 1472 1471 1472 1475 1474 1473 1471 1470
1483 1483 1483 1484 1484 1485 1486 1488 1490 1492 1494 1496 1496 1497 1499 1500 1500 1499 1498 1498 1501 1505 1495 1488 1483 1479 1480 1483 1485 1488 1490 1491 1490 1488 1484 1478 1475 1473 1473 1472 1467 1465 1466 1468 1465 1466 1467 1468 1471 1472 1471 1469 1467 1466
1478 1478 1478 1479 1480 1481 1482 1484 1486 1488 1490 1492 1493 1494 1496 1497 1498 1498 1497 1496 1497 1502 1500 1486 1474 1472 1472 1474 1477 1480 1482 1485 1485 1484 1479 1474 1474 1476 1466 1463 1462 1462 1463 1463 1463 1466 1467 1467 1468 1468 1467 1464 1463 1463
1472 1473 1474 1474 1475 1476 1478 1480 1482 1484 1486 1488 1490 1491 1492 1494 1495 1497 1494 1493 1493 1496 1498 1486 1468 1464 1465 1467 1470 1473 1477 1479 1479 1477 1476 1472 1469 1474 1466 1459 1458 1459 1461 1462 1463 1464 1462 1462 1461 1461 1462 1461 1460 1461
1467 1468 1470 1470 1472 1473 1475 1477 1479 1482 1483 1485 1487 1489 1489 1490 1490 1488 1489 1490 1491 1494 1495 1488 1468 1463 1463 1461 1464 1468 1470 1474 1473 1471 1467 1464 1462 1465 1458 1454 1455 1455 1457 1457 1459 1460 1458 1456 1456 1455 1456 1455 1456 1458
1462 1463 1465 1467 1468 1470 1472 1474 1477 1479 1481 1483 1486 1487 1487 1487 1487 1486 1486 1488 1490 1493 1488 1479 1466 1457 1463 1460 1456 1464 1462 1464 1463 1462 1459 1456 1450 1451 1449 1451 1451 1453 1454 1456 1456 1455 1453 1453 1451 1451 1451 1452 1453 1454
1458 1459 1461 1463 1465 1467 1469 1472 1475 1477 1480 1482 1484 1485 1483 1480 1482 1483 1484 1486 1486 1485 1483 1476 1467 1461 1465 1461 1453 1454 1458 1456 1453 1449 1448 1447 1442 1440 1445 1446 1451 1452 1453 1453 1452 1450 1450 1450 1450 1448 1447 1449 1451 1452
1453 1455 1457 1459 1461 1464 1467 1470 1473 1476 1478 1480 1481 1479 1477 1478 1480 1480 1478 1478 1478 1477 1472 1463 1459 1458 1464 1463 1452 1447 1445 1446 1437 1439 1440 1433 1432 1434 1444 1446 1447 1448 1449 1450 1450 1449 1449 1448 1447 1447 1446 1447 1448 1449
1449 1451 1453 1455 1457 1461 1464 1467 1470 1473 1475 1476 1476 1476 1475 1476 1474 1471 1467 1472 1472 1460 1454 1452 1453 1456 1462 1458 1455 1446 1439 1429 1434 1434 1433 1430 1437 1441 1442 1444 1445 1446 1446 1446 1446 1446 1446 1445 1445 1444 1444 1445 1446 1447
1445 1448 1449 1452 1455 1458 1462 1465 1468 1471 1473 1476 1476 1474 1472 1469 1468 1462 1454 1452 1449 1451 1449 1450 1451 1452 1455 1454 1446 1440 1434 1432 1430 1433 1431 1433 1439 1441 1443 1444 1445 1445 1444 1444 1443 1444 1443 1442 1441 1442 1442 1443 1444 1445
1443 1445 1448 1451 1454 1458 1461 1464 1467 1470 1473 1474 1473 1472 1467 1457 1453 1448 1445 1444 1447 1448 1449 1449 1448 1448 1448 1447 1445 1436 1433 1430 1427 1425 1429 1437 1440 1442 1444 1444 1444 1444 1443 1443 1442 1442 1440 1440 1440 1440 1440 1442 1443 1444
1443 1446 1448 1452 1455 1458 1461 1464 1466 1469 1471 1470 1469 1464 1453 1449 1450 1450 1448 1447 1446 1447 1448 1448 1445 1443 1443 1445 1442 1441 1433 1426 1424 1430 1434 1440 1442 1444 1444 1443 1443 1443 1443 1443 1442 1442 1440 1440 1440 1439 1441 1444 1445 1446
1443 1446 1449 1452 1455 1458 1461 1463 1466 1468 1469 1468 1465 1460 1451 1449 1447 1448 1446 1444 1444 1444 1446 1445 1439 1435 1431 1426 1429 1427 1422 1427 1435 1436 1442 1443 1443 1443 1443 1442 1443 1443 1442 1441 1440 1440 1441 1441 1442 1443 1442 1446 1447 1450
1444 1446 1449 1453 1456 1459 1461 1464 1466 1467 1466 1463 1457 1453 1452 1451 1448 1446 1445 1443 1442 1442 1438 1436 1431 1425 1424 1424 1426 1425 1432 1438 1440 1443 1443 1443 1443 1443 1442 1442 1442 1442 1442 1441 1441 1441 1442 1444 1445 1446 1446 1448 1449 1450
1446 1448 1451 1454 1457 1460 1462 1463 1463 1462 1459 1456 1451 1450 1449 1448 1445 1442 1441 1440 1441 1439 1436 1431 1429 1425 1425 1425 1430 1437 1441 1442 1444 1444 1444 1444 1444 1443 1443 1444 1444 1444 1444 1445 1445 1445 1445 1446 1447 1447 1450 1451 1453 1453
1447 1449 1453 1456 1459 1461 1461 1462 1461 1457 1453 1451 1449 1446 1445 1443 1441 1440 1438 1439 1439 1438 1437 1433 1429 1429 1435 1439 1439 1441 1444 1444 1444 1446 1446 1446 1446 1447 1448 1447 1447 1447 1448 1448 1449 1450 1450 1451 1452 1453 1454 1455 1455 1456
1450 1453 1456 1458 1460 1460 1460 1459 1458 1456 1452 1448 1444 1442 1442 1440 1439 1437 1438 1439 1439 1438 1437 1437 1439 1443 1442 1444 1444 1445 1446 1447 1447 1447 1449 1450 1451 1451 1451 1452 1451 1452 1452 1452 1453 1453 1454 1455 1457 1458 1458 1458 1458 1459
1454 1456 1459 1460 1460 1459 1457 1455 1453 1451 1448 1445 1440 1432 1433 1436 1437 1438 1437 1437 1439 1445 1447 1448 1447 1447 1446 1445 1447 1448 1448 1449 1450 1451 1452 1453 1454 1455 1456 1456 1456 1456 1456 1456 1456 1457 1457 1458 1460 1460 1461 1462 1463 1464
1458 1461 1462 1462 1460 1458 1456 1454 1452 1450 1448 1446 1442 1439 1436 1439 1440 1443 1444 1445 1451 1452 1452 1451 1450 1450 1450 1450 1451 1452 1453 1453 1454 1455 1457 1457 1458 1459 1460 1460 1460 1460 1460 1460 1460 1460 1461 1461 1462 1463 1463 1464 1465 1466
1462 1462 1462 1461 1460 1457 1456 1453 1452 1450 1448 1448 1445 1445 1445 1446 1448 1448 1449 1452 1453 1454 1453 1453 1453 1453 1454 1454 1454 1456 1457 1458 1459 1460 1462 1463 1464 1464 1464 1464 1464 1463 1463 1463 1462 1462 1462 1462 1463 1464 1465 1466 1467 1466
1464 1463 1461 1460 1459 1457 1454 1451 1451 1450 1449 1447 1448 1450 1451 1451 1452 1452 1456 1458 1458 1457 1457 1457 1456 1456 1456 1457 1458 1460 1462 1463 1464 1466 1467 1467 1468 1468 1468 1467 1467 1466 1466 1466 1465 1465 1465 1465 1466 1467 1467 1467 1468 1469
1465 1462 1461 1459 1456 1455 1450 1446 1445 1445 1445 1448 1447 1450 1454 1453 1455 1461 1463 1464 1463 1461 1460 1460 1459 1460 1461 1462 1463 1464 1465 1467 1467 1469 1470 1470 1470 1470 1471 1470 1470 1469 1469 1468 1468 1468 1468 1468 1469 1469 1470 1470 1469 1469
1462 1459 1459 1451 1450 1448 1445 1445 1447 1449 1448 1450 1455 1457 1458 1463 1466 1469 1469 1468 1467 1466 1466 1466 1466 1465 1466 1467 1468 1469 1469 1470 1470 1470 1472 1472 1472 1472 1472 1471 1471 1472 1471 1470 1470 1470 1470 1470 1470 1470 1470 1469 1468 1469
1458 1457 1456 1456 1454 1453 1452 1452 1451 1451 1452 1455 1457 1458 1457 1464 1472 1474 1473 1472 1471 1470 1470 1470 1470 1470 1471 1471 1471 1472 1471 1472 1472 1472 1472 1473 1473 1473 1474 1473 1473 1473 1473 1472 1472 1471 1471 1471 1471 1470 1470 1470 1469 1469
1462 1462 1459 1458 1456 1455 1455 1457 1459 1460 1459 1461 1460 1463 1467 1473 1475 1475 1475 1475 1475 1474 1474 1474 1473 1473 1474 1474 1475 1475 1475 1474 1473 1474 1474 1474 1474 1474 1474 1474 1473 1472 1473 1472 1473 1473 1472 1472 1471 1470 1470 1469 1469 1468
1466 1465 1463 1462 1461 1463 1465 1466 1466 1467 1467 1464 1466 1470 1475 1476 1477 1477 1477 1477 1478 1479 1479 1479 1479 1478 1478 1477 1476 1476 1476 1476 1476 1475 1475 1474 1475 1475 1474 1474 1474 1474 1474 1474 1473 1473 1472 1472 1471 1470 1469 1468 1467 1467
1470 1468 1467 1468 1467 1468 1471 1470 1471 1470 1471 1471 1472 1475 1477 1479 1480 1479 1479 1480 1482 1482 1482 1481 1481 1480 1480 1479 1478 1477 1476 1475 1475 1475 1475 1475 1475 1475 1474 1474 1474 1474 1474 1474 1474 1473 1471 1471 1470 1469 1469 1468 1467 1465
1475 1474 1473 1472 1473 1476 1475 1476 1476 1476 1476 1476 1478 1479 1481 1482 1483 1484 1484 1484 1484 1484 1484 1483 1483 1482 1482 1480 1480 1479 1479 1478 1476 1476 1476 1477 1476 1475 1474 1474 1474 1474 1474 1474 1473 1473 1472 1471 1470 1469 1468 1466 1465 1464
1480 1479 1478 1478 1480 1481 1480 1480 1480 1481 1482 1481 1481 1481 1482 1482 1483 1485 1485 1485 1484 1484 1484 1484 1484 1484 1483 1482 1481 1480 1480 1480 1479 1479 1478 1478 1477 1476 1476 1476 1475 1474 1474 1473 1472 1471 1470 1469 1468 1467 1466 1465 1463 1462
1483 1482 1481 1482 1482 1481 1482 1482 1482 1483 1483 1482 1482 1482 1482 1482 1483 1485 1485 1484 1484 1484 1485 1485 1484 1484 1483 1483 1482 1482 1482 1481 1480 1479 1478 1477 1477 1476 1476 1476 1475 1474 1473 1472 1471 1470 1469 1468 1467 1466 1465 1463 1462 1460
Wind_Speed
20 18 17 17 16 15 13 10 8 10 11 10 9 9 11 9 7 5 7 7 9 7 16 13 9 10 12 9 7 6 8 11 8 11 12 11 10 9 12 14 10 11 9 8 8 10 12 8 4 6 9 12 9 8
18 19 18 18 17 15 15 12 11 10 8 10 10 10 10 11 8 5 4 4 9 13 14 11 15 20 21 20 13 11 13 5 5 5 6 6 10 5 9 11 9 11 10 7 5 2 5 2 4 10 11 14 11 9
20 20 19 18 17 17 15 14 14 13 9 9 11 11 10 11 9 7 10 6 7 11 21 22 21 18 22 25 20 14 15 13 7 5 10 4 6 5 8 12 11 8 7 8 10 12 7 4 12 5 7 9 10 9
15 17 18 18 18 18 18 16 16 14 10 8 10 11 11 9 9 9 10 7 11 7 7 6 8 12 12 18 24 25 27 15 11 11 13 8 8 6 9 7 6 7 6 9 12 17 18 22 7 6 11 12 11 9
18 19 15 14 15 16 16 15 15 14 11 10 12 10 10 9 11 13 13 14 14 9 5 13 24 27 23 22 20 22 27 26 23 17 9 9 15 8 10 8 10 16 12 11 11 15 13 19 19 14 17 18 14 10
17 16 15 16 14 14 14 13 14 15 13 12 8 9 9 9 9 7 4 7 13 16 7 5 8 16 11 15 27 25 20 23 24 19 16 17 16 9 7 9 17 16 16 19 20 14 17 21 18 18 17 12 10 8
17 16 12 12 11 12 12 12 12 12 12 11 9 9 9 9 10 9 3 9 15 15 5 7 6 3 3 16 16 23 27 21 18 21 18 17 15 12 11 13 16 13 12 12 15 19 21 18 19 14 13 14 8 8
15 15 13 11 12 11 11 11 10 10 9 9 8 9 8 10 14 16 13 7 1 14 5 4 5 12 6 9 14 17 17 22 19 21 13 15 13 10 9 14 12 10 8 10 11 8 13 16 16 17 15 10 10 10
12 14 14 12 8 10 11 10 9 8 9 8 6 5 8 9 6 5 13 11 7 11 4 5 7 2 2 12 12 15 15 9 11 10 17 11 10 8 9 11 6 4 5 5 8 11 10 9 8 8 8 10 12 10
11 13 12 13 12 10 10 10 9 9 9 7 4 4 6 6 9 8 9 7 8 8 7 6 9 8 4 8 11 12 10 4 6 12 15 6 11 17 18 10 8 8 8 7 9 9 6 7 6 6 6 10 11 10
13 14 13 12 14 10 13 13 11 11 10 6 7 5 4 6 8 5 6 7 7 5 8 12 22 11 4 6 4 9 4 3 7 6 7 7 8 6 3 5 5 5 5 6 6 5 5 7 8 7 6 9 10 10
11 11 12 11 14 14 16 15 12 12 8 8 4 3 2 6 7 5 5 7 6 5 6 8 9 12 8 8 3 6 4 2 3 9 5 4 4 5 5 5 4 2 3 5 6 7 6 7 7 6 6 7 9 7
9 11 8 10 15 17 16 14 12 9 8 7 3 2 5 6 4 5 6 4 4 5 4 3 4 8 9 7 9 4 5 5 6 5 4 3 9 8 7 5 1 1 3 2 2 4 7 6 5 5 6 6 7 6
7 11 11 14 17 15 13 14 9 10 5 3 3 3 5 5 4 6 7 3 0 2 2 3 6 5 4 4 3 3 2 3 3 4 3 6 9 9 6 5 5 4 2 2 3 4 2 3 0 3 5 7 9 9
11 13 15 15 14 12 11 11 10 10 5 3 3 4 7 9 9 10 11 13 9 5 4 7 7 9 8 5 5 2 3 2 3 3 4 8 6 4 1 4 4 4 3 2 3 4 9 7 4 6 9 10 13 12
13 16 15 15 13 13 12 12 11 11 3 3 4 5 7 8 3 7 8 7 5 7 6 9 3 4 6 3 3 5 2 4 4 5 7 5 5 1 1 2 3 4 4 4 4 5 7 10 9 11 13 13 10 11
17 10 17 13 13 11 10 12 8 5 4 3 7 7 12 10 9 6 7 9 7 4 4 4 4 4 2 3 2 4 3 6 10 7 5 3 2 1 5 5 5 6 7 9 10 10 11 11 9 9 11 12 12 10
8 15 16 15 15 16 14 6 5 4 6 10 8 7 11 10 11 12 8 7 6 4 3 2 3 3 1 2 3 6 10 9 8 7 6 8 9 7 8 10 10 12 14 14 14 13 13 12 13 16 17 15 14 16
14 17 17 15 18 8 4 4 4 4 6 7 11 14 10 8 11 9 11 7 9 5 6 5 1 3 4 6 10 11 8 7 8 9 10 11 13 13 11 12 13 12 12 11 13 15 15 14 15 16 16 16 18 16
16 15 17 18 3 2 3 3 5 4 5 4 9 7 7 8 8 2 3 7 6 1 5 4 4 8 8 9 9 8 9 8 10 12 11 10 11 12 15 15 15 11 12 13 14 14 11 11 12 10 9 9 10 12
17 20 17 1 3 3 4 3 5 4 5 4 8 12 1 6 9 11 8 6 7 5 4 4 6 6 7 9 7 7 8 9 11 13 12 13 10 10 11 11 10 10 11 11 11 11 10 10 9 11 10 9 10 11
11 15 4 4 3 3 4 2 5 8 4 7 10 12 6 9 13 15 17 19 8 6 3 2 5 7 10 10 10 13 14 15 15 16 16 16 15 15 15 13 12 10 9 8 7 7 6 5 7 7 8 9 9 8
9 4 3 3 3 2 4 5 2 4 3 5 8 4 4 4 6 3 5 6 6 7 3 5 5 8 9 12 14 16 17 18 20 23 20 17 14 12 12 11 9 9 8 8 7 5 3 5 5 6 8 8 6 6
2 2 2 3 2 3 4 2 3 2 3 2 2 3 4 5 6 6 4 4 12 6 7 7 7 9 11 13 14 14 13 14 15 14 12 11 12 11 11 11 11 10 9 7 7 7 7 7 8 6 5 3 4 2
2 2 4 6 5 4 3 1 3 3 6 4 4 5 4 4 4 5 4 6 9 8 7 8 11 13 15 15 15 12 11 9 11 11 9 9 8 8 8 8 10 10 8 7 7 7 8 7 7 6 4 3 2 2
4 5 3 5 2 3 4 3 4 6 4 4 5 4 5 4 3 2 3 8 8 8 8 10 10 12 14 12 11 9 5 4 4 5 5 5 6 7 7 8 7 8 8 6 6 5 5 5 4 3 3 3 4 3
4 6 4 4 3 2 4 5 6 5 4 4 3 2 2 4 4 2 5 8 8 8 10 9 10 13 10 6 3 1 1 2 2 3 3 3 4 5 6 6 5 4 5 5 5 4 4 4 3 3 2 1 2 2
6 8 6 8 8 8 4 4 3 4 3 3 2 4 3 3 0 5 6 8 7 10 10 9 8 4 6 8 8 6 5 4 5 5 4 5 5 5 4 3 3 3 3 3 5 4 4 4 4 4 3 2 3 4
5 8 7 9 5 5 6 4 3 4 3 3 3 2 4 7 5 4 3 4 6 7 8 8 7 6 4 4 5 5 4 3 3 3 3 3 3 5 5 2 1 1 1 2 3 3 3 3 4 3 3 3 4 5
10 11 12 13 6 6 8 8 14 15 19 20 21 19 12 9 9 11 12 10 7 5 5 5 6 6 6 6 6 7 8 7 5 3 3 3 3 4 4 3 1 1 1 0 2 4 7 7 8 6 5 5 5 6
5 14 18 17 17 15 14 15 15 16 16 16 15 16 13 11 10 9 8 6 5 5 5 5 6 7 7 7 6 5 6 8 9 10 8 6 6 6 6 5 3 2 1 1 2 4 5 5 5 5 5 6 8 9
8 7 13 11 12 9 9 11 10 10 8 8 8 7 5 4 4 3 3 3 1 1 2 3 4 4 6 6 8 8 9 7 7 7 7 7 8 8 7 6 4 3 3 3 4 5 5 5 5 6 6 8 9 10
7 8 6 6 4 5 6 5 4 4 3 3 3 3 4 4 3 2 1 5 1 2 1 1 2 2 3 4 4 5 6 5 7 9 8 8 7 7 6 5 5 5 6 6 6 6 5 5 5 7 7 8 9 10
Wind_Direction
275 274 276 278 272 268 271 270 270 289 300 301 278 293 313 321 315 247 201 232 219 247 265 264 267 266 255 244 272 65 256 213 238 235 246 245 243 229 230 252 248 235 233 225 235 257 249 113 161 259 354 321 297 296
280 277 274 273 273 267 261 255 262 275 293 298 281 278 296 313 309 273 231 230 241 242 256 271 260 249 250 256 283 264 264 309 312 267 236 261 241 240 247 250 187 246 244 298 247 9 95 320 322 315 299 285 285 284
264 266 266 268 264 263 258 253 253 263 269 290 282 270 280 301 287 304 237 243 250 270 284 265 265 264 249 244 238 252 247 248 248 294 318 277 258 262 222 234 250 203 231 248 258 241 243 274 311 291 328 312 289 284
275 279 267 263 264 262 256 254 242 249 260 261 277 267 272 288 294 295 256 228 233 266 275 283 281 258 256 236 233 233 244 258 263 269 266 258 243 192 259 279 279 274 161 244 249 260 281 278 285 297 318 313 307 273
280 280 277 265 266 252 243 243 240 239 246 254 264 266 258 276 288 295 272 237 220 230 309 294 288 280 261 240 229 228 233 242 248 247 235 242 251 259 252 268 260 250 240 250 255 268 280 278 290 278 308 304 293 267
271 277 269 259 255 250 246 238 238 236 242 235 262 253 260 270 282 304 273 236 212 224 279 297 298 278 255 229 225 222 221 224 231 235 246 251 252 239 253 242 257 273 261 260 260 279 285 284 276 273 292 308 277 241
254 263 273 259 250 242 247 235 235 235 240 235 229 253 252 260 268 227 269 152 190 194 239 281 272 225 254 216 211 215 218 225 224 226 236 241 223 210 253 259 262 247 263 260 261 285 279 268 267 263 269 297 261 230
252 253 261 260 246 242 231 226 226 230 225 217 230 234 250 267 279 264 194 180 255 195 225 260 272 269 199 207 193 201 207 209 218 226 227 226 203 224 253 256 264 271 277 266 254 255 277 279 272 263 268 260 217 214
260 244 245 244 246 231 217 215 208 214 203 206 225 254 273 253 232 240 206 218 267 208 242 240 252 288 282 255 189 186 193 198 215 214 229 220 221 217 231 247 257 272 262 280 272 281 291 278 270 256 238 214 212 213
262 237 238 242 236 219 210 202 201 191 195 198 223 212 226 204 209 198 176 192 195 211 231 251 266 264 341 316 218 174 187 215 206 203 211 229 243 242 239 244 249 255 256 269 283 282 296 283 308 261 216 213 216 221
256 234 234 243 220 214 197 185 188 189 190 196 202 227 211 168 186 201 207 192 181 227 219 243 237 240 288 255 253 179 208 208 200 176 201 217 232 168 204 208 209 214 238 250 262 263 287 290 285 270 241 219 221 223
247 226 229 224 208 200 190 194 191 194 199 199 243 241 165 199 210 220 191 164 203 231 214 234 234 194 233 236 258 236 252 290 205 152 213 241 101 140 161 151 163 206 241 254 262 255 275 295 272 246 214 204 208 216
216 211 218 184 183 181 183 189 189 199 203 208 260 244 212 200 214 226 200 207 204 199 221 218 198 177 211 223 240 231 215 199 142 186 199 107 131 127 126 128 121 241 242 240 245 285 272 272 234 203 196 190 187 175
194 181 179 172 170 173 178 180 185 183 197 213 215 238 223 203 221 232 237 329 282 182 136 297 224 180 200 205 306 260 312 268 219 184 126 133 118 116 109 54 60 51 36 87 11 21 89 141 208 140 158 161 149 141
168 166 162 163 168 173 175 173 172 171 186 237 203 238 224 218 202 242 262 268 252 219 229 270 232 209 179 186 212 263 248 224 41 65 97 108 114 117 66 45 17 20 24 19 32 104 95 80 94 102 122 123 123 123
165 159 164 160 165 162 161 164 172 183 247 223 229 254 271 284 268 292 290 276 268 219 221 237 248 216 208 189 192 210 194 56 70 82 82 68 76 127 141 154 108 70 57 56 61 90 132 141 113 101 113 119 134 129
161 156 157 157 157 159 158 153 161 205 230 239 241 248 274 280 275 272 292 278 229 209 217 206 217 195 125 175 176 23 51 95 98 93 82 67 67 90 99 98 76 78 85 79 82 84 115 127 120 111 107 125 137 134
148 160 161 162 159 158 168 181 214 218 241 245 262 265 277 268 281 286 284 242 210 233 252 282 293 203 82 100 77 113 101 94 96 97 84 83 94 92 94 98 84 85 88 85 89 92 96 99 108 114 109 112 111 121
156 157 155 154 153 163 202 211 221 263 244 259 268 278 262 261 260 266 272 205 206 267 285 286 29 56 68 54 91 100 112 123 114 98 92 102 102 98 90 88 86 88 97 94 88 88 89 93 98 106 108 110 106 100
138 142 152 154 172 220 230 210 218 246 255 264 271 299 300 274 271 235 148 170 209 199 39 25 48 64 65 74 90 101 111 111 112 107 94 98 96 99 97 78 76 76 80 85 83 86 92 102 101 102 101 90 105 107
150 159 165 196 289 267 254 238 232 251 294 284 295 302 291 168 133 103 90 121 65 40 52 57 39 31 79 91 89 88 90 95 100 98 95 91 85 120 79 68 74 67 75 75 82 81 76 75 89 87 88 93 105 110
157 165 194 270 285 276 262 279 299 309 305 315 342 346 17 56 66 60 77 77 83 77 113 358 7 52 76 82 96 103 101 103 101 99 102 89 84 85 75 64 55 57 55 53 52 55 63 62 80 93 97 99 102 104
151 179 256 253 271 272 289 324 300 345 337 9 352 21 26 35 23 54 63 36 41 20 78 89 67 97 104 110 107 107 94 95 96 98 102 101 92 76 65 57 51 50 47 42 43 52 68 83 108 107 109 106 113 96
177 269 295 321 305 293 276 232 208 255 216 214 38 40 19 10 77 73 63 31 21 60 61 81 98 116 125 123 123 119 102 108 110 106 98 92 79 71 61 55 48 44 47 57 63 69 79 98 100 110 118 91 83 63
254 235 222 237 246 243 242 167 67 45 67 89 84 80 41 34 45 41 32 18 25 30 49 70 81 99 108 107 110 118 109 109 105 104 97 86 80 71 59 53 49 48 52 61 68 77 86 97 104 106 102 93 62 41
225 213 223 344 76 347 16 55 47 40 52 60 53 59 54 55 63 49 28 17 36 34 49 60 78 94 92 96 103 101 88 86 97 112 105 69 52 45 42 37 44 42 45 55 63 76 83 89 88 78 54 47 63 65
36 25 28 21 2 45 72 54 43 52 51 53 69 64 56 76 41 21 75 60 50 70 94 96 71 72 77 79 80 60 23 52 49 79 116 79 61 51 36 29 37 47 40 50 53 66 68 53 37 25 18 21 18 19
25 22 26 37 63 50 73 54 50 33 42 21 55 44 45 70 84 80 65 53 73 97 92 80 89 87 55 59 39 50 50 55 62 87 79 67 59 51 48 32 43 69 76 83 68 60 53 39 21 3 343 317 314 320
23 9 29 41 57 60 40 36 64 41 27 61 90 82 93 110 92 44 64 75 106 93 86 77 72 68 62 43 32 23 17 3 304 293 306 326 333 350 6 16 24 104 84 41 66 62 31 24 11 3 355 350 334 334
28 37 73 62 65 52 51 74 87 85 92 96 100 112 99 77 61 75 89 98 94 90 72 66 64 59 48 40 34 36 39 40 47 41 35 46 15 360 9 27 101 122 147 31 344 338 1 9 343 351 348 344 335 332
59 92 92 83 84 84 85 91 86 90 95 96 101 104 104 106 93 78 80 81 76 72 74 72 60 46 37 38 43 48 55 57 61 68 75 59 47 46 53 56 68 83 29 322 324 323 324 338 336 339 333 336 334 337
81 84 96 98 93 88 88 85 83 84 88 98 98 103 111 97 84 82 26 26 358 29 61 59 40 40 49 59 65 76 89 78 64 58 61 59 55 56 52 52 46 37 11 345 333 325 319 326 325 327 331 330 331 336
99 101 94 99 111 111 106 101 99 108 118 111 84 51 49 45 71 85 2 13 111 138 115 86 64 64 61 88 90 83 79 76 71 62 55 50 46 53 56 13 3 2 354 345 336 328 325 318 322 322 328 331 333 333